Regional Weather Roundup
Issued by NWS

Home | Current Version | Previous Version | Text Only | Print | Product List | Glossary On
Versions: 1 2 3 4 5 6 7 8 9 10 11 12 13 14 15 16 17 18 19 20 21 22 23 24 25 26 27 28 29 30 31 32 33 34 35 36 37 38 39 40 41 42 43 44 45 46 47 48 49 50
000
ASUS43 KDTX 181710
RWRMI
MICHIGAN HOURLY REGIONAL WEATHER ROUNDUP
NATIONAL WEATHER SERVICE DETROIT/PONTIAC MI
100 PM EDT WED OCT 18 2017

NOTE: "FAIR" INDICATES FEW OR NO CLOUDS BELOW 12,000 FEET WITH NO
SIGNIFICANT WEATHER AND/OR OBSTRUCTION TO VISIBILITY.

MIZ047>049-052>055-059>063-066>070-074>076-081>083-181800-
SOUTHEAST LOWER MICHIGAN

CITY           SKY/WX    TMP DP  RH WIND       PRES   REMARKS
ADRIAN         SUNNY     64  43  46 SW12      30.24F
ALMA           SUNNY     66  38  36 SW15G24   30.14F
ANN ARBOR      SUNNY     64  43  46 SW16      30.22F
BAD AXE        SUNNY     65  39  38 S17       30.15F
CARO           SUNNY     67  40  37 S15G21    30.15F
DETROIT CITY   SUNNY     63  42  46 S13G21    30.23F
DETROIT        SUNNY     66  43  43 S17       30.24F
FLINT          SUNNY     65  40  39 SW13G24   30.18F
GROSSE ILE     SUNNY     63  48  59 S14       30.23F
HILLSDALE      SUNNY     63  41  45 S14       30.21F
HOWELL         SUNNY     65  40  40 SW13      30.19F

CITY           SKY/WX    TMP DP  RH WIND       PRES   REMARKS
JACKSON        SUNNY     64  41  42 S10       30.20F
LAMBERTVILLE   SUNNY     67  43  42 SW8       30.24F
LANSING        SUNNY     65  39  38 SW14G23   30.18F
LAPEER         FAIR      65  42  42 SW13G20   30.18F
MASON          SUNNY     65  42  42 S6        30.19F
MONROE         SUNNY     66  41  40 SW12G17   30.24F
MT. CLEMENS    SUNNY     66  44  44 SW13G21   30.21F
PONTIAC        SUNNY     63  42  46 S13G20    30.20F
PORT HURON     SUNNY     66  43  42 S16G23    30.21F
TRI CITIES     SUNNY     66  42  41 S18       30.15F
MIDLAND        FAIR      67  43  42 SW15G22   30.12F
TROY           SUNNY     64  40  40 SW9G21    30.23F
SAGINAW HB     SUNNY     64  41  42 SW21      30.14F
$$
MIZ043>046-050>051-056>058-064>065-071>073-077>080-181800-
SOUTHWEST LOWER MICHIGAN

CITY           SKY/WX    TMP DP  RH WIND       PRES   REMARKS
BATTLE CREEK   SUNNY     64  43  46 S14G21    30.19F
BENTON HARBOR  SUNNY     65  43  44 S10G18    30.17F
BIG RAPIDS     SUNNY     65  43  45 SW9G22    30.09F
COLDWATER      SUNNY     64  39  39 S9G20     30.21F
FREMONT        FAIR      65  47  51 SW17G25   30.10F
HOLLAND        SUNNY     65  42  43 SW16G25   30.15F
GRAND RAPIDS   SUNNY     66  43  43 SW14G23   30.15F
IONIA          FAIR      66  40  37 SW17      30.15F
KALAMAZOO      SUNNY     65  41  41 S16       30.19F
LUDINGTON      SUNNY     65  48  54 S14G23    30.05F
MARSHALL       SUNNY     64  41  43 S13       30.19F
MOUNT PLEASANT SUNNY     67  41  38 S14G20    30.11F
MUSKEGON       SUNNY     63  51  65 S22G29    30.11F
SOUTH HAVEN    SUNNY     66  40  38 SW10      30.16F
$$
MIZ016>042-181800-
NORTHERN LOWER MICHIGAN

CITY           SKY/WX    TMP DP  RH WIND       PRES   REMARKS
ALPENA         SUNNY     69  48  47 S15G24    30.03F
BEAVER ISLAND  SUNNY     65  51  59 SW15G26   29.96F
BELLAIRE       SUNNY     68  45  42 S8G20     30.00F
CADILLAC       SUNNY     67  45  46 S14G25    30.05F
CHARLEVOIX     SUNNY     66  48  51 S14G30    30.02S
FRANKFORT      SUNNY     66  50  56 S17G26    30.02R
GAYLORD        SUNNY     66  44  45 SW20G28   30.02F
GRAYLING       SUNNY     66  44  46 S14G24    30.05F
HARBOR SPRINGS SUNNY     66  46  48 SW14G23   29.99S
HOUGHTON LAKE  SUNNY     65  46  50 S13G26    30.08F
MANISTEE       SUNNY     67  47  48 S14G24    30.03S
OSCODA         SUNNY     66  45  47 S15G26    30.08F
PELLSTON       SUNNY     68  47  46 SW16G25   29.99F
ROGERS CITY    SUNNY     67  48  49 SW14G22   30.02F
TRAVERSE CITY  SUNNY     69  47  45 SW10G25   29.99F
$$
MIZ007>008-015-181800-
EASTERN UPPER MICHIGAN

CITY           SKY/WX    TMP DP  RH WIND       PRES   REMARKS
KINROSS        SUNNY     66  50  56 SW10G20   29.96F
MACKINAC ISLAN SUNNY     66  47  51 SW9G16    29.97F
NEWBERRY       SUNNY     63  53  70 S28G33    29.91F
S. S. MARIE    SUNNY     66  51  58 S13       29.94F
MUNISING         N/A     67  50  54 S16G30    29.84F
$$
MIZ004>006-011>014-085-181800-
CENTRAL UPPER MICHIGAN

CITY           SKY/WX    TMP DP  RH WIND       PRES   REMARKS
MANISTIQUE     SUNNY     62  53  72 S14G22    29.93F
ESCANABA       SUNNY     61  51  70 S17G23    29.91F
MENOMINEE      SUNNY     64  48  56 SW15G21   29.93F
SAWYER-GWINN   SUNNY     63  46  55 S24G31    29.84F
$$
MIZ001>003-009>011-084-181800-
WESTERN UPPER MICHIGAN

CITY           SKY/WX    TMP DP  RH WIND       PRES   REMARKS
IRON MOUNTAIN  SUNNY     67  45  45 S15       29.85F
HOUGHTON       SUNNY     70  45  40 S16G24    29.70F
COPPER HARBOR    N/A     64  46  52 SW16G30   29.69F
IRONWOOD       SUNNY     68  46  45 SW16G24   29.75R
$$

ABBREVIATIONS USED IN REMARKS
   TC - TEMPERATURE IN CELSIUS
  WCI - WIND CHILL INDEX
   HX - HEAT INDEX
  VSB - VISIBILITY





USA.gov is the U.S. government's official web portal to all federal, state and local government web resources and services.